SAS77B EKCH-EGLL

Flight info

Callsign SAS77B
Flight time N/A
Altitude 40000
Route LANGO2F LANGO M611 ALASA DCT WANZA DCT BEDUM DCT SPY DCT ABNED L980 LOGAN LOGAN2H
Aircraft A333/H-SDE3GHIJ2J3J5M1RVWXY/LB2D1

Departure

Time N/A
Airport Copenhagen Kastrup Airport (EKCH)

Arrival

Time 2026-05-04 00:20
Airport London Heathrow Airport (EGLL)
Time Latitude Longitude Altitude Speed Heading
2026-05-03 23:27 54.02321 8.09163 35877 ft 440 kts 232°
2026-05-03 23:27 54.00495 8.04975 35885 ft 440 kts 232°
2026-05-03 23:28 53.96852 7.96643 35887 ft 440 kts 232°
2026-05-03 23:28 53.93209 7.88345 35884 ft 440 kts 233°
2026-05-03 23:29 53.84437 7.68469 35913 ft 441 kts 232°
2026-05-03 23:29 53.25394 6.38287 35831 ft 443 kts 233°
2026-05-03 23:30 53.21777 6.30108 35921 ft 444 kts 232°
2026-05-03 23:30 53.18053 6.21906 35898 ft 446 kts 232°
2026-05-03 23:31 53.14308 6.13714 35888 ft 446 kts 232°
2026-05-03 23:31 53.10582 6.05589 35898 ft 445 kts 231°
2026-05-03 23:32 53.06820 5.97411 35911 ft 445 kts 231°
2026-05-03 23:32 53.03070 5.89288 35889 ft 446 kts 231°
2026-05-03 23:33 52.99285 5.81118 35911 ft 445 kts 231°
2026-05-03 23:33 52.95522 5.73020 35889 ft 444 kts 231°
2026-05-03 23:34 52.91772 5.64975 35883 ft 445 kts 231°
2026-05-03 23:34 52.87996 5.56898 35916 ft 445 kts 232°
2026-05-03 23:35 52.84188 5.48781 35889 ft 446 kts 232°
2026-05-03 23:35 52.80404 5.40740 35898 ft 446 kts 232°
2026-05-03 23:36 52.76597 5.32676 35908 ft 445 kts 231°
2026-05-03 23:36 52.72797 5.24651 35890 ft 445 kts 231°
2026-05-03 23:37 52.68998 5.16657 35924 ft 445 kts 231°
2026-05-03 23:37 52.65189 5.08666 35896 ft 445 kts 231°
2026-05-03 23:38 52.61359 5.00655 35908 ft 444 kts 231°
2026-05-03 23:38 52.57523 4.92655 35924 ft 444 kts 231°
2026-05-03 23:39 52.53705 4.84681 35917 ft 445 kts 233°
2026-05-03 23:39 52.50324 4.76117 35932 ft 445 kts 236°
2026-05-03 23:40 52.46925 4.67589 35917 ft 446 kts 236°
2026-05-03 23:40 52.43520 4.59098 35919 ft 446 kts 236°
2026-05-03 23:41 52.40143 4.50702 35922 ft 445 kts 236°
2026-05-03 23:41 52.36724 4.42232 35912 ft 446 kts 236°
2026-05-03 23:42 52.33313 4.33810 35911 ft 446 kts 235°
2026-05-03 23:42 52.29903 4.25419 35919 ft 446 kts 235°
2026-05-03 23:43 52.26467 4.16991 36191 ft 448 kts 235°
2026-05-03 23:43 52.24757 4.12806 35818 ft 447 kts 235°
2026-05-03 23:43 52.23061 4.08663 35966 ft 434 kts 235°
2026-05-03 23:44 52.19663 4.00382 35868 ft 441 kts 235°
2026-05-03 23:44 52.16267 3.92137 35879 ft 443 kts 235°
2026-05-03 23:45 52.12844 3.83848 35923 ft 442 kts 235°
2026-05-03 23:45 52.09404 3.75543 35904 ft 442 kts 235°
2026-05-03 23:46 52.05977 3.67301 35889 ft 443 kts 235°
2026-05-03 23:46 52.02517 3.59001 35924 ft 442 kts 235°
2026-05-03 23:47 51.99069 3.50760 35906 ft 443 kts 235°
2026-05-03 23:47 51.95606 3.42510 35896 ft 443 kts 235°
2026-05-03 23:48 51.92163 3.34332 35916 ft 442 kts 234°
2026-05-03 23:48 51.88681 3.26089 35908 ft 442 kts 234°
2026-05-03 23:49 51.85385 3.17815 35881 ft 443 kts 244°
2026-05-03 23:49 51.84558 3.13052 35859 ft 441 kts 259°
2026-05-03 23:49 51.84302 3.08190 35498 ft 424 kts 261°
2026-05-03 23:50 51.84024 3.03544 34469 ft 422 kts 261°
2026-05-03 23:50 51.83726 2.98834 33922 ft 417 kts 260°
2026-05-03 23:50 51.83429 2.94264 33484 ft 409 kts 260°
2026-05-03 23:50 51.83133 2.89760 32875 ft 407 kts 260°
2026-05-03 23:51 51.82832 2.85214 32278 ft 403 kts 260°
2026-05-03 23:51 51.82534 2.80761 31746 ft 399 kts 260°
2026-05-03 23:51 51.82240 2.76382 31198 ft 394 kts 260°
2026-05-03 23:51 51.81945 2.72011 30649 ft 390 kts 260°
2026-05-03 23:52 51.81652 2.67706 29999 ft 387 kts 260°
2026-05-03 23:52 51.81358 2.63419 29363 ft 384 kts 260°
2026-05-03 23:52 51.81062 2.59133 28689 ft 383 kts 260°
2026-05-03 23:52 51.80768 2.54897 28047 ft 380 kts 260°
2026-05-03 23:53 51.80476 2.50699 27459 ft 376 kts 260°
2026-05-03 23:53 51.80185 2.46551 26826 ft 375 kts 260°
2026-05-03 23:53 51.79892 2.42387 26206 ft 372 kts 261°
2026-05-03 23:53 51.79602 2.38281 25628 ft 369 kts 261°
2026-05-03 23:54 51.79308 2.34159 24985 ft 369 kts 260°
2026-05-03 23:54 51.79015 2.30076 24895 ft 368 kts 260°
2026-05-03 23:54 51.78722 2.25983 24944 ft 370 kts 260°
2026-05-03 23:54 51.78431 2.21864 24848 ft 366 kts 261°
2026-05-03 23:55 51.78195 2.17779 24931 ft 367 kts 261°
2026-05-03 23:55 51.77955 2.13669 24877 ft 367 kts 261°
2026-05-03 23:55 51.77718 2.09634 24889 ft 367 kts 261°
2026-05-03 23:55 51.77474 2.05506 24904 ft 368 kts 261°
2026-05-03 23:56 51.77230 2.01420 24871 ft 367 kts 261°
2026-05-03 23:56 51.76987 1.97356 24903 ft 367 kts 261°
2026-05-03 23:56 51.76737 1.93213 24893 ft 369 kts 262°
2026-05-03 23:56 51.76487 1.89097 24879 ft 369 kts 262°
2026-05-03 23:57 51.76239 1.85013 24908 ft 368 kts 262°
2026-05-03 23:57 51.75985 1.80879 24889 ft 370 kts 262°
2026-05-03 23:57 51.75732 1.76764 24886 ft 369 kts 262°
2026-05-03 23:57 51.75478 1.72689 24909 ft 371 kts 262°
2026-05-03 23:58 51.75217 1.68488 24889 ft 371 kts 262°
2026-05-03 23:58 51.74960 1.64379 24901 ft 370 kts 262°
2026-05-03 23:58 51.74699 1.60249 24922 ft 370 kts 262°
2026-05-03 23:58 51.74438 1.56135 24908 ft 370 kts 262°
2026-05-03 23:59 51.74178 1.52065 24915 ft 370 kts 262°
2026-05-03 23:59 51.73910 1.47894 24927 ft 371 kts 262°
2026-05-03 23:59 51.73644 1.43778 24913 ft 370 kts 262°
2026-05-03 23:59 51.73377 1.39659 24910 ft 372 kts 262°
2026-05-04 00:00 51.73109 1.35544 24931 ft 370 kts 262°
2026-05-04 00:00 51.72832 1.31339 24913 ft 371 kts 261°
2026-05-04 00:00 51.72559 1.27185 24907 ft 371 kts 261°
2026-05-04 00:00 51.72286 1.23075 24860 ft 366 kts 261°
2026-05-04 00:01 51.72020 1.19075 23753 ft 361 kts 262°
2026-05-04 00:01 51.71753 1.15107 22199 ft 366 kts 262°
2026-05-04 00:01 51.71480 1.11054 21372 ft 358 kts 262°
2026-05-04 00:01 51.71217 1.07164 20564 ft 353 kts 262°
2026-05-04 00:02 51.70953 1.03285 19661 ft 350 kts 262°
2026-05-04 00:02 51.70689 0.99429 18791 ft 346 kts 262°
2026-05-04 00:02 51.70428 0.95628 18010 ft 340 kts 262°
2026-05-04 00:02 51.70169 0.91854 17179 ft 336 kts 262°
2026-05-04 00:03 51.69912 0.88156 16376 ft 332 kts 262°
2026-05-04 00:03 51.69658 0.84507 15854 ft 329 kts 262°
2026-05-04 00:03 51.69402 0.80872 15983 ft 329 kts 261°
2026-05-04 00:03 51.69144 0.77206 15898 ft 331 kts 261°
2026-05-04 00:04 51.68883 0.73513 15910 ft 330 kts 261°
2026-05-04 00:04 51.68624 0.69858 15962 ft 330 kts 261°
2026-05-04 00:04 51.68359 0.66159 15908 ft 331 kts 261°
2026-05-04 00:04 51.68101 0.62542 15910 ft 326 kts 261°
2026-05-04 00:05 51.67849 0.59023 15809 ft 306 kts 261°
2026-05-04 00:05 51.67610 0.55706 15276 ft 296 kts 261°
2026-05-04 00:05 51.67374 0.52465 14343 ft 296 kts 261°
2026-05-04 00:05 51.67136 0.49182 13496 ft 292 kts 261°
2026-05-04 00:06 51.66903 0.46028 12725 ft 288 kts 261°
2026-05-04 00:06 51.66668 0.42836 11910 ft 285 kts 261°
2026-05-04 00:06 51.66438 0.39717 11397 ft 278 kts 262°
2026-05-04 00:06 51.66215 0.36692 10669 ft 276 kts 262°
2026-05-04 00:07 51.65989 0.33653 9862 ft 274 kts 261°
2026-05-04 00:07 51.65765 0.30644 9104 ft 272 kts 261°
2026-05-04 00:07 51.65541 0.27644 8341 ft 270 kts 262°
2026-05-04 00:07 51.65320 0.24698 7559 ft 268 kts 262°
2026-05-04 00:08 51.65099 0.21748 6834 ft 266 kts 262°
2026-05-04 00:08 51.64876 0.18797 6104 ft 265 kts 262°
2026-05-04 00:08 51.64657 0.15883 5926 ft 263 kts 263°
2026-05-04 00:08 51.64663 0.12943 5933 ft 264 kts 273°
2026-05-04 00:09 51.64767 0.09998 5936 ft 263 kts 272°
2026-05-04 00:09 51.64864 0.07023 5923 ft 265 kts 272°
2026-05-04 00:09 51.64957 0.04107 5954 ft 262 kts 272°
2026-05-04 00:09 51.65049 0.01209 5935 ft 253 kts 272°
2026-05-04 00:10 51.65136 -0.01602 5912 ft 245 kts 272°
2026-05-04 00:10 51.65220 -0.04287 5912 ft 236 kts 272°
2026-05-04 00:10 51.65299 -0.06857 5928 ft 230 kts 272°
2026-05-04 00:10 51.65376 -0.09392 5916 ft 225 kts 272°
2026-05-04 00:11 51.65452 -0.11912 5924 ft 225 kts 272°
2026-05-04 00:11 51.65529 -0.14444 5910 ft 225 kts 272°
2026-05-04 00:11 51.65346 -0.16873 5830 ft 216 kts 245°
2026-05-04 00:11 51.64433 -0.18612 5692 ft 202 kts 210°
2026-05-04 00:12 51.63143 -0.19349 5572 ft 191 kts 199°
2026-05-04 00:12 51.61910 -0.20071 5213 ft 193 kts 202°
2026-05-04 00:12 51.60670 -0.20872 4926 ft 192 kts 204°
2026-05-04 00:12 51.59436 -0.21694 4980 ft 192 kts 204°
2026-05-04 00:13 51.58161 -0.22279 4900 ft 195 kts 179°
2026-05-04 00:13 51.56922 -0.21622 4793 ft 190 kts 143°
2026-05-04 00:13 51.56093 -0.20022 4577 ft 184 kts 125°
2026-05-04 00:13 51.55314 -0.18328 4410 ft 189 kts 127°
2026-05-04 00:14 51.54522 -0.16631 4458 ft 194 kts 127°
2026-05-04 00:14 51.53719 -0.14921 4420 ft 194 kts 128°
2026-05-04 00:14 51.52826 -0.13311 4404 ft 194 kts 145°
2026-05-04 00:14 51.51572 -0.12751 4408 ft 190 kts 184°
2026-05-04 00:15 51.50386 -0.13571 4438 ft 187 kts 222°
2026-05-04 00:15 51.49681 -0.15338 4464 ft 190 kts 242°
2026-05-04 00:15 51.49018 -0.17173 4428 ft 189 kts 240°
2026-05-04 00:15 51.48362 -0.18977 4442 ft 188 kts 240°
2026-05-04 00:16 51.47694 -0.20817 4434 ft 190 kts 240°
2026-05-04 00:16 51.47109 -0.22580 4437 ft 185 kts 247°
2026-05-04 00:16 51.46791 -0.24486 4137 ft 174 kts 258°
2026-05-04 00:16 51.46586 -0.26325 3461 ft 167 kts 265°
2026-05-04 00:17 51.46561 -0.28187 2710 ft 169 kts 272°
2026-05-04 00:17 51.46559 -0.29993 2209 ft 158 kts 271°
2026-05-04 00:17 51.46526 -0.31738 1718 ft 154 kts 270°
2026-05-04 00:17 51.46538 -0.33380 1303 ft 146 kts 273°
2026-05-04 00:18 51.46525 -0.34940 1048 ft 134 kts 270°
2026-05-04 00:18 51.46532 -0.36367 838 ft 124 kts 270°
2026-05-04 00:18 51.46519 -0.37747 705 ft 123 kts 269°
2026-05-04 00:18 51.46506 -0.39101 561 ft 123 kts 270°
2026-05-04 00:19 51.46500 -0.40446 403 ft 118 kts 270°
2026-05-04 00:19 51.46496 -0.41716 280 ft 113 kts 270°
2026-05-04 00:19 51.46492 -0.42873 171 ft 113 kts 270°
2026-05-04 00:20 51.46486 -0.45470 89 ft 74 kts 268°
2026-05-04 00:20 51.46482 -0.46214 89 ft 57 kts 269°
2026-05-04 00:20 51.46396 -0.46713 84 ft 38 kts 238°
2026-05-04 00:21 51.46313 -0.46720 86 ft 12 kts 140°
2026-05-04 00:21 51.46251 -0.46625 88 ft 12 kts 155°